STARLINK-32547, 61919

Orbit data source: Space-Track

STARLINK-32547, 61919 is a payload satellite owned by SpaceX/Seattle (US) in LEO that was launched on Mon, 11 Nov 2024 UTC via an FALCON 9 launch vehicle from the Air Force Eastern Test Range (AFETR). Payload-class satellites include a variety of spacecraft equipped with specific instruments for various scientific and technological missions. These include communications satellites like Starlink; space stations such as the ISS; scientific satellites like the Hubble; Earth observation satellites from companies like Planet Labs, Umbra, and HawkEye 360; GPS; miniature CubeSats for education and research; and military/defense satellites.

Loading next visibility...
Identifier
61919, 2024-207H
Orbit
LEO
Country
Flag of USUS
Related business
Manufacturer
SpaceX/Seattle
Mission
Operational Commercial Communications
Bus & Motor
STARLINK V2M, Unknown motor
Mass
730 kg wet, ~700 kg dry
Launch date (UTC)
2024-11-11 (2 years ago)
Launch vehicle
FALCON 9
Launch site
Air Force Eastern Test Range (AFETR)
Object type
Payload
Rocket body
Debris
Shape & HBR
Box + 2 Pan, 17.7 m
Radar Cross Section
33.884 m², Large (>1 m²)

Expand to show TLE details & history
Last TLE update: 18 hours ago

TLE from 18 hours ago
0 STARLINK-32547
1 61919U 24207H   26145.17144088  .00015873  00000-0  58476-3 0  9999
2 61919  43.0005 209.4157 0002939 277.4670  82.5847 15.27596360 86411
Epoch: 2026-05-25T04:06Z
TLE epoch observation values (Epoch: 2026-05-25T04:06:52.492Z)
Latitude
-0.00004°
Longitude
-95.06612°
Altitude
482.516 km
Speed
7.626 km/s
True Right ascension
13h 57m 39s
True Declination
0° 00' 00"
Sunlit
Object was in full shadow at epoch
Visualization orbit readout
Latitude
Unknown
Longitude
Unknown
Altitude
Unknown
Speed
Unknown
Apparent Right ascension
Unknown
Apparent Declination
Unknown
Sunlit
N/A
Visualization observer readout
Local Sidereal Time
07:17:07
Azimuth
Unknown
Elevation
Unknown
Doppler factor
Unknown
Orbital elements
Apogee altitude
486.962 km
Perigee altitude
482.928 km
Semi-major axis
6,863.082 km
Eccentricity
0.00029
Inclination
43.0005°
RAAN
209.4157°
Arg. of periapsis
277.467°
True anomaly
82.6181°
Mean anomaly
82.5847°
Eccentric anomaly
82.6014°
Mean motion
3.81737 °/min
Orbital period
94.31 mins
BSTAR
0.00058476
Loading maneuver chart data...
Computing Atmospheric mass density...
Loading historical data...
Loading historical data...
Loading historical data...
Loading historical data...
Loading historical data...
Loading historical data...
Loading historical data...

Documentation

Showing up to 5 results
|